Find OneWeb SL0548

NORAD ID: 56050 Int'l Des: 2023-043 Owner: ONEWEBN Country: UK Constellation: oneweb operational
LEOCIRCULARPOLARONEWEB_TYPE

現在のビュー

3D地球を読み込み中...

About OneWeb SL0548

OneWeb SL0548 (NORAD 56050) is a oneweb constellation satellite launched Mar 26, 2023 by ONEWEBN of UK. It operates in LEO, CIRCULAR, POLAR, ONEWEB_TYPE orbit with a mass of 148.00 kg.

OneWeb SL0548について

説明を読み込み中...

次回通過

Passes for default location (London). Set your location on the main map for personalized predictions.

高度履歴

Loading altitude history...

軌道要素

1 56050U 23043E 26169.41607459 -.00000242 00000-0 -66556-3 0 9999
2 56050 87.9095 228.5262 0001985 84.8061 275.3297 13.16594235159125
Epoch: Jun 18, 2026 • Age: 11 hours

現在のステータス

高度 1201.6 km
速度 7.25 km/s
衛星直下点 -5.76°S, 7.61°E
打ち上げ日 Mar 26, 2023
運用期間 3.2 years
タイプ internet

技術仕様

分類 Payload
質量 148.00 kg
乾燥質量 140.00 kg
総質量 148.00 kg
長さ 1.30 m
直径 1.00 m
スパン 5.00 m
形状 Trapezoid+2 pan
製造者 ONEWUS
バスタイプ ARROW
フェーズステータス In Orbit
所有者/国 ONEWEBN/UK

Most Searched